Other Public Products
Issued by NWS Grand Forks, ND

Home | Current Version | Previous Version | Text Only | Print | Product List | Glossary On
Versions: 1 2 3 4 5 6 7 8 9 10 11 12 13 14 15 16 17 18 19 20 21 22 23 24 25 26 27 28 29 30 31 32 33 34 35 36 37 38 39 40 41 42 43 44 45 46 47 48 49 50
000
FPUS83 KFGF 180931
OPUFGF
PRAIRIE TO PINES WEATHER ROUNDUP
NATIONAL WEATHER SERVICE EASTERN NORTH DAKOTA/GRAND FORKS ND
400 AM CDT SAT APR 18 2015

 **SATELLITE DATA USED TO AUGMENT SKY COVER AT AUTOMATED STATIONS**
 *****  WEATHER ACROSS EASTERN NORTH DAKOTA  *****

CITY           SKY/WX    TMP DP  RH WIND       PRES   REMARKS
GRAND FORKS    CLEAR     30  25  81 CALM      30.16S
GRAND FORKS AF CLEAR     27  23  84 N2        30.16R
GRAND CITY NWS   N/A     34 N/A N/A NE3         N/A
BUXTON           N/A     38  30  71 CALM        N/A
DEVILS LAKE    CLEAR     37  28  70 SE5       30.13F
FARGO          CLEAR     42  24  49 NE10      30.10F
WAHPETON ARPT  MOSUNNY   45  21  39 E7        30.09S
$$

 *****  WEATHER ACROSS CENTRAL AND WESTERN NORTH DAKOTA  *****

CITY           SKY/WX    TMP DP  RH WIND       PRES   REMARKS
JAMESTOWN      CLEAR     34  24  67 NE6       30.10F
BISMARCK       CLEAR     35  26  69 E3        30.09F
MINOT          CLEAR     37  26  64 E7        30.09F
MINOT AFB      CLEAR     32  27  82 SE3       30.09F
GARRISON         N/A     40  29  64 E6        30.08F
WILLISTON      CLEAR     48  25  40 SE6       30.03F
DICKINSON      CLEAR     42  26  53 SE12      30.02F
HETTINGER      MOCLDY    34  26  72 CALM      30.06S
$$

 *****  OTHER OBSERVATIONS NORTHEAST NORTH DAKOTA  *****

CITY           SKY/WX    TMP DP  RH WIND       PRES   REMARKS
WALHALLA       FAIR      28  28 100 S3        30.18S
LANGDON        FAIR      34  28  80 E12       30.15S
CAVALIER       FAIR      37  28  70 E3        30.18S
GRAFTON        FAIR      34  27  75 E6        30.18S
CANDO          FAIR      30  25  80 E6        30.15S WCI  24
FORT TOTTEN      N/A     42  29  61 SE7       29.95
ROLLA          FAIR      32  27  80 CALM      30.14F
RUGBY          FAIR      36  32  87 E12       30.11F
 ***** THE ABOVE OBSERVATIONS ARE NON NWS ARE NOT QUALITY
        CONTROLLED AND MAY MIS-REPORT RAIN FOR SNOW...
$$

 *****  OTHER OBSERVATIONS SOUTHEAST NORTH DAKOTA *****

CITY           SKY/WX    TMP DP  RH WIND       PRES   REMARKS
COOPERSTOWN    NOT AVBL
VALLEY CITY    PTSUNNY   41  27  56 NE7       30.11F
OAKES            N/A     41  27  56 NE15      30.07F
GWINNER        SUNNY     37  21  52 N10       30.09F
SHEYENNE NWR     N/A     41  22  47 NE6       29.95
BUFFALO        NOT AVBL
WYNDMERE         N/A     43  19  39 N5          N/A
 ***** THE ABOVE OBSERVATIONS ARE NON NWS ARE NOT QUALITY
       CONTROLLED AND MAY MIS-REPORT RAIN FOR SNOW...
$$

  *****  WEATHER ACROSS NORTHERN MINNESOTA  *****

CITY           SKY/WX    TMP DP  RH WIND       PRES   REMARKS
FLAG ISLAND    CLEAR     34  28  80 N3        30.21F
WARROAD        CLEAR     34  30  86 E7        30.21R
ROSEAU         CLEAR     36  28  75 E8        30.19S
HALLOCK        CLEAR     39  28  65 E10       30.18R
THF RVR FALLS  CLEAR     37  28  70 NE12      30.17S
HALSTAD          N/A     30  18  59 NE10        N/A  WCI  21
FOSSTON        CLEAR     36  25  64 NE6       30.16R
BAUDETTE       CLEAR     34  28  79 NE3       30.20S
WASKISH        CLEAR     36  30  80 E7G16     30.19R
CROOKSTON      CLEAR     37  28  70 E5        30.18R
$$
  *****  WEATHER ACROSS CENTRAL AND WEST MINNESOTA  *****

CITY           SKY/WX    TMP DP  RH WIND       PRES   REMARKS
BEMIDJI        CLEAR     36  29  75 E6        30.16R
PARK RAPIDS    CLEAR     45  27  49 NE6       30.14R
WADENA         CLEAR     43  25  49 NE6       30.12S
DETROIT LAKES  CLEAR     46  28  49 E7        30.13S
MOORHEAD       CLEAR     37  21  52 N6        30.11F
FERGUS FALLS   PTCLDY    48  19  32 E10G16    30.10S
ELBOW LAKE     FAIR      50  27  40 E12       30.07F
MORRIS MN      PTCLDY    50  27  40 E16       30.05S
STAPLES        CLEAR     43  23  45 NE3       30.12S
WHEATON        PTCLDY    45  25  45 NE9       30.08F
$$
  *****  WEATHER ELSEWHERE ACROSS MINNESOTA  *****

CITY           SKY/WX    TMP DP  RH WIND       PRES   REMARKS
DULUTH         CLEAR     43  29  57 E14       30.16R
INTRNTL FALLS  CLEAR     28  24  85 NE3       30.21R
ELY            CLEAR     36  30  80 E3        30.20R
CLOQUET        CLEAR     43  28  56 E5        30.16R
BRAINERD       CLEAR     45  27  49 NE8       30.12F
HIBBING        CLEAR     39  28  64 NE5       30.17R
ALEXANDRIA     PTCLDY    48  24  39 NE10      30.10F
SAINT CLOUD    CLEAR     50  26  39 NE7       30.08S
MINNEAPOLIS    PTCLDY    51  32  48 N7        30.05F
$$

  *****  WEATHER ACROSS SOUTH DAKOTA  *****

CITY           SKY/WX    TMP DP  RH WIND       PRES   REMARKS
SIOUX FALLS    PTCLDY    50  26  39 NE7       30.01F
BROOKINGS      CLOUDY    45  34  65 NE3       30.04F
WATERTOWN      MOCLDY    43  24  47 CALM      30.05S
HURON          MOCLDY    49  33  54 CALM      30.02F
SISSETON         N/A     40  25  55 NW8       30.07S
ABERDEEN       MOCLDY    43  27  53 N8        30.06S
MITCHELL       CLOUDY    56  27  32 E7        30.00F
PIERRE         CLOUDY    54  45  71 N13       30.00F
MOBRIDGE       MOCLDY    48  27  44 E13       30.04S
RAPID CITY     CLOUDY    48  46  93 N3        30.03F
$$

  *****  SOME WEATHER IN NEARBY STATES *****

CITY           SKY/WX    TMP DP  RH WIND       PRES   REMARKS
GLASGOW MT     CLEAR     42  29  59 E13       29.94F
GREAT FALLS MT PTCLDY    44  28  53 SW10      30.02R
CHEYENNE WY    LGT RAIN  34  33  96 NW6       29.99F
SCOTTSBLUFF NE LGT RAIN  42  42 100 W8        29.98F
OMAHA NE       CLOUDY    64  55  72 SE6       29.95F
DES MOINES IA  CLOUDY    65  55  70 E6        29.99S
DAVENPORT IA   PTCLDY    57  46  66 NE3       30.01S
CHICAGO IL     MOCLDY    60  47  61 W3        30.00S
EAU CLAIRE WI  CLEAR     45  31  58 NE8       30.06R
LA CROSSE WI   CLEAR     51  45  79 SE5       30.04R
$$

  *****  SOME NATIONAL WEATHER *****

CITY           SKY/WX    TMP DP  RH WIND       PRES   REMARKS
LA GUARDIA NY  PTCLDY    58  44  60 CALM      29.96R
RALEIGH NC     CLOUDY    62  60  93 CALM      29.98R FOG
ATLANTA GA     FOG       63  61  94 E7        29.97S VSB 1/2
NEW ORLEANS LA TSTM      74  70  87 N5        29.90F FOG
OKLAHOMA CITY  CLOUDY    60  55  83 SE3       29.95S
ALBUQUERQUE NM PTCLDY    42  29  59 CALM      30.01F
SALT LAKE CITY CLEAR     46  37  71 CALM      30.02S
LOS ANGELES CA CLEAR     58  49  72 SE3       30.02F
BOISE ID       CLEAR     47  33  58 CALM      30.05S
SEATTLE WA     CLEAR     50  42  74 N3        30.33S
$$

*** WEATHER ACROSS MANITOBA...SASKATCHEWAN AND ONTARIO ***
                ***ONTARIO***

CITY           SKY/WX    TMP DP  RH WIND       PRES   REMARKS
GERALDTON      MOCLDY    34  30  86 N12       30.16R
THUNDER BAY    PTCLDY    37  30  75 NW6       30.23R
SIOUX LOOKOUT  CLEAR     25  23  93 CALM      30.22R
TORONTO        CLEAR     50  39  66 CALM      29.95F
BIG TROUT LK   PTCLDY    30  30 100 N3        30.21R
PICKLE LAKE    NOT AVBL
DRYDEN         CLEAR     32  28  86 CALM      30.21R
KENORA         CLEAR     36  28  75 S3        30.22R
$$
                *** MANITOBA***

CITY           SKY/WX    TMP DP  RH WIND       PRES   REMARKS
BRANDON        CLEAR     30  27  86 E8        30.15F WCI  23
DAUPHIN        CLEAR     32  30  93 NW5       30.13F
ISLAND LAKE    CLEAR     32  30  93 SE5       30.21S
PILOT MOUND      N/A     28  25  86 SE5         N/A  WCI  23
THE PAS        CLOUDY    43  30  61 S7        30.06S
THOMPSON       MOCLDY    34  27  75 VRB2      30.12
WINNIPEG       CLEAR     34  28  80 E7        30.20F
LYNN LAKE      CLOUDY    36  25  64 SE5       30.02F
CHURCHILL      MOCLDY    16  10  79 NW5       30.25  WCI   9
GILLAM         CLEAR     23  23 100 E2        30.20S
$$
                ***SASKATCHEWAN***

CITY           SKY/WX    TMP DP  RH WIND       PRES   REMARKS
ESTEVAN        CLEAR     45  25  45 SE16G26   30.04
KINDERSLEY     PTCLDY    41  39  93 NW10      29.93R
LLOYDMINSTER   PTCLDY    39  36  87 NW9       29.94S
PRINCE ALBERT  LGT RAIN  48  28  46 E10       29.87F
REGINA         PTCLDY    45  30  57 SE21G28   29.95F


USA.gov is the U.S. government's official web portal to all federal, state and local government web resources and services.